[[{"header":{"parameterUnit":"m.s-1","parameterCategory":2,"la1":30.2991,"la2":30.254,"lo1":-89.0895,"lo2":-89.0444,"dy":0.0017,"dx":0.0017,"nx":28,"ny":28,"refTime":"2024-06-17T21:00:00:Z","depth":"0","parameterNumber":2,"parameterNumberName":"U-component_of_CURRENTS"},"data":[0,0,0,0,0,0,0,0,0,0,0,0,0,0,0,0,0,0,0,0,0,0,0,0,0,0,0,0,0,0,0,0,0,0,0,0,0,0,0,0,0,0,0,0,0,0,0,0,0,0,0,0,0,0,0,0,0,0,-0.1225,-0.1225,0,-0.1227,-0.1227,-0.1226,-0.1205,-0.1204,-0.1204,-0.1204,-0.114,-0.1139,-0.1138,0,0,0,0,0,0,0,0,0,0,0,0,0,-0.1138,-0.114,-0.1225,-0.1225,-0.1226,-0.1227,-0.1227,-0.1226,-0.1205,-0.1204,-0.1204,-0.1204,-0.1141,-0.1139,-0.1137,0,0,0,0,0,0,0,0,0,0,0,0,0,-0.1159,-0.1141,-0.1225,-0.1218,-0.1217,-0.1227,-0.1227,-0.1226,-0.1205,-0.1204,-0.1204,-0.1204,-0.1141,-0.1139,-0.1137,-0.1133,0,0,-0.1131,-0.113,0,0,0,0,0,0,0,0,-0.1158,-0.1161,-0.1218,-0.1218,-0.1218,-0.1218,-0.1173,-0.1193,-0.1205,-0.1206,-0.1204,-0.1203,-0.1163,-0.1159,-0.1156,-0.113,-0.1127,-0.113,-0.1129,-0.1128,-0.1128,0,0,0,0,0,0,0,-0.1156,-0.1161,-0.1222,-0.1219,-0.1218,-0.1192,-0.1195,-0.1176,-0.1183,-0.1206,-0.1205,-0.1211,-0.1162,-0.1158,-0.1155,-0.1126,-0.1131,-0.1129,-0.1127,-0.1126,-0.1079,-0.1079,0,0,0,0,0,0,-0.1167,-0.116,-0.1222,-0.1223,-0.119,-0.1195,-0.1198,-0.1216,-0.1184,-0.1181,-0.1211,-0.121,-0.1162,-0.1157,-0.1152,-0.1145,-0.1128,-0.1126,-0.1125,-0.1079,-0.1079,-0.1079,0,0,0,0,0,0,-0.1166,-0.1173,-0.1222,-0.1193,-0.1198,-0.1198,-0.1217,-0.1216,-0.1219,-0.119,-0.1184,-0.1217,-0.1162,-0.1155,-0.1142,-0.1142,-0.1125,-0.1123,-0.1079,-0.1079,-0.1079,-0.1129,0,0,0,0,0,0,-0.1163,-0.1173,-0.1189,-0.1195,-0.12,-0.1238,-0.1218,-0.1216,-0.1224,-0.1223,-0.1193,-0.1186,-0.1161,-0.1145,-0.1139,-0.1139,-0.1122,-0.1079,-0.1079,-0.1079,-0.1127,-0.1131,-0.1134,0,0,0,0,0,-0.116,-0.1193,-0.119,-0.1197,-0.1223,-0.1239,-0.1239,-0.1234,-0.1225,-0.1233,-0.121,-0.1187,-0.1141,-0.1144,-0.1137,-0.1136,-0.1079,-0.1079,-0.1079,-0.1126,-0.113,-0.1134,0,0,0,0,0,0,-0.1169,-0.1194,-0.1191,-0.1231,-0.1236,-0.1237,-0.125,-0.1241,-0.123,-0.1229,-0.1193,-0.1185,-0.1168,-0.1148,-0.1152,-0.1121,-0.1104,-0.1102,-0.1142,-0.1145,-0.1149,-0.1183,-0.112,0,0,0,0,0,-0.1178,-0.1207,-0.1217,-0.1248,-0.1256,-0.1252,-0.1257,-0.1254,-0.1247,-0.1242,-0.1219,-0.1191,-0.1163,-0.1153,-0.1126,-0.1118,-0.115,-0.111,-0.1113,-0.1116,-0.1139,-0.118,-0.119,-0.1079,-0.1079,-0.1079,0,0,-0.1191,-0.1208,-0.1225,-0.1251,-0.1256,-0.1269,-0.1254,-0.1273,-0.1274,-0.1236,-0.123,-0.1201,-0.1162,-0.1146,-0.1137,-0.1132,-0.1169,-0.1116,-0.1119,-0.1141,-0.1181,-0.1193,-0.1203,-0.1079,-0.1079,-0.1079,0,0,-0.1229,-0.1247,-0.1279,-0.1283,-0.1298,-0.1293,-0.1301,-0.1303,-0.1296,-0.1287,-0.1254,-0.1235,-0.1196,-0.1172,-0.1153,-0.116,-0.1181,-0.1143,-0.1193,-0.1233,-0.1243,-0.1253,-0.1338,-0.1355,-0.115,-0.115,-0.115,0,-0.1242,-0.1283,-0.1288,-0.1311,-0.1325,-0.1306,-0.1335,-0.1319,-0.1311,-0.1325,-0.1291,-0.1259,-0.1208,-0.1207,-0.1195,-0.1168,-0.1218,-0.1182,-0.1241,-0.125,-0.1259,-0.1344,-0.1362,-0.1152,-0.1152,-0.1152,-0.1151,0,-0.1296,-0.1321,-0.1342,-0.1362,-0.1376,-0.1398,-0.1385,-0.1393,-0.1377,-0.1369,-0.1369,-0.131,-0.1306,-0.1265,-0.1223,-0.1257,-0.1283,-0.1239,-0.1239,-0.1274,-0.1361,-0.1379,-0.1156,-0.1155,-0.1154,-0.1153,0,0,-0.1351,-0.1376,-0.1382,-0.1409,-0.1408,-0.1438,-0.144,-0.1463,-0.1507,-0.1455,-0.1509,-0.1416,-0.1409,-0.1387,-0.1338,-0.1346,-0.1428,-0.1323,-0.1324,-0.1425,-0.1572,-0.1677,-0.1706,-0.1405,-0.1407,-0.1409,-0.162,0,-0.1393,-0.1445,-0.1447,-0.1501,-0.1531,-0.1525,-0.1551,-0.1565,-0.1563,-0.1604,-0.1541,-0.1556,-0.1447,-0.146,-0.1448,-0.1429,-0.1473,-0.1379,-0.1509,-0.1514,-0.1616,-0.1729,-0.1794,-0.1995,-0.1637,-0.164,-0.1642,0,-0.1445,-0.1479,-0.1525,-0.1602,-0.1623,-0.1641,-0.1721,-0.1741,-0.1769,-0.1774,-0.1769,-0.1742,-0.173,-0.1635,-0.1655,-0.1609,-0.1609,-0.1589,-0.1597,-0.1692,-0.1652,-0.1893,-0.204,-0.2055,-0.167,-0.1667,-0.1665,0,-0.1485,-0.1549,-0.1591,-0.1603,-0.1665,-0.1703,-0.1746,-0.1792,-0.1847,-0.1885,-0.1937,-0.1921,-0.1932,-0.1906,-0.1847,-0.1775,-0.1902,-0.1798,-0.1909,-0.1918,-0.2,-0.2012,-0.2191,-0.186,-0.186,-0.1859,-0.1858,0,-0.1525,-0.1573,-0.1613,-0.1631,-0.1741,-0.1764,-0.1874,-0.1915,-0.1987,-0.2082,-0.2028,-0.2101,-0.2,-0.2042,-0.1965,-0.2029,-0.201,-0.1977,-0.1993,-0.2022,-0.2033,-0.2066,-0.2029,-0.1867,-0.1865,-0.1864,-0.1862,0,-0.1548,-0.1559,-0.1633,-0.1709,-0.1744,-0.1822,-0.1947,-0.2036,-0.2086,-0.2208,-0.2231,-0.2269,-0.2329,-0.2274,-0.2272,-0.222,-0.2266,-0.2265,-0.2335,-0.2356,-0.245,-0.2412,-0.258,-0.2551,-0.2441,-0.2446,-0.2449,0,-0.1565,-0.1585,-0.1682,-0.1738,-0.1765,-0.1876,-0.1964,-0.206,-0.2148,-0.2315,-0.2383,-0.2493,-0.258,-0.2651,-0.26,-0.2605,-0.2472,-0.2658,-0.2508,-0.2536,-0.2504,-0.2406,-0.2357,-0.2647,-0.2651,-0.2655,-0.2658,0,-0.1594,-0.1608,-0.166,-0.1773,-0.1862,-0.1989,-0.2108,-0.2196,-0.2329,-0.2449,-0.2636,-0.2737,-0.2855,-0.2934,-0.2948,-0.2883,-0.2676,-0.2741,-0.2741,-0.2693,-0.2627,-0.258,-0.2446,-0.2693,-0.269,-0.2687,-0.2685,-0.2684,-0.1614,-0.1658,-0.1709,-0.1819,-0.1933,-0.2063,-0.2114,-0.2277,-0.2442,-0.2613,-0.2781,-0.2965,-0.3132,-0.3173,-0.3143,-0.3133,-0.2964,-0.3043,-0.3006,-0.2912,-0.2859,-0.2844,-0.3109,-0.3108,-0.3107,-0.3106,-0.3105,0,-0.1636,-0.167,-0.1762,-0.1872,-0.1961,-0.2026,-0.2179,-0.2202,-0.2356,-0.2661,-0.2843,-0.3224,-0.3369,-0.343,-0.3498,-0.3424,-0.3246,-0.3319,-0.317,-0.3107,-0.3106,-0.3088,-0.3396,-0.3396,-0.3396,-0.3396,-0.3396,-0.3396,-0.1646,-0.1697,-0.1733,-0.1846,-0.1909,-0.195,-0.1992,-0.2074,-0.2242,-0.2561,-0.2888,-0.3139,-0.3287,-0.3737,-0.3738,-0.3601,-0.3419,-0.3395,-0.3286,-0.3271,-0.3239,-0.3208,-0.3185,-0.3508,-0.3509,-0.3253,-0.3251,-0.325]},{"header":{"parameterUnit":"m.s-1","parameterCategory":2,"la1":30.2991,"la2":30.254,"lo1":-89.0895,"lo2":-89.0444,"dy":0.0017,"dx":0.0017,"nx":28,"ny":28,"refTime":"2024-06-17T21:00:00:Z","depth":"0","parameterNumber":3,"parameterNumberName":"V-component_of_CURRENTS"},"data":[0,0,0,0,0,0,0,0,0,0,0,0,0,0,0,0,0,0,0,0,0,0,0,0,0,0,0,0,0,0,0,0,0,0,0,0,0,0,0,0,0,0,0,0,0,0,0,0,0,0,0,0,0,0,0,0,0,0,-0.0036,-0.0035,0,0.0056,0.0057,0.0058,0.0107,0.0107,0.0107,0.0108,0.0179,0.018,0.0182,0,0,0,0,0,0,0,0,0,0,0,0,0,-0.0111,-0.011,-0.0037,-0.0035,-0.0034,0.0055,0.0057,0.0058,0.0107,0.0107,0.0107,0.0108,0.0178,0.018,0.0182,0,0,0,0,0,0,0,0,0,0,0,0,0,-0.0056,-0.011,-0.0037,0.0002,0.0006,0.0055,0.0057,0.0058,0.0107,0.0107,0.0108,0.0108,0.0177,0.018,0.0183,0.0193,0,0,0.019,0.0192,0,0,0,0,0,0,0,0,-0.0059,-0.0053,-0.0005,-0.0001,0.0004,0.0071,0.0057,0.0102,0.0107,0.0068,0.0108,0.0108,0.0141,0.0147,0.0162,0.0196,0.0199,0.0191,0.0192,0.0193,0.0194,0,0,0,0,0,0,0,-0.0063,-0.0056,-0.0001,-0.0004,0.0002,0.0035,0.0042,0.0066,0.0101,0.0071,0.0075,0.0087,0.0143,0.016,0.0164,0.02,0.0191,0.0193,0.0194,0.0195,0.0276,0.0276,0,0,0,0,0,0,-0.0076,-0.006,-0.0004,0.0002,-0.0026,0.0036,0.0044,0.0049,0.0101,0.011,0.0087,0.0089,0.0155,0.0161,0.0167,0.0204,0.0193,0.0196,0.0197,0.0275,0.0276,0.0277,0,0,0,0,0,0,-0.0078,-0.0072,-0.0008,-0.0026,-0.0015,0.0036,0.0041,0.005,0.007,0.0113,0.0121,0.0097,0.0156,0.0163,0.02,0.0206,0.0197,0.0199,0.0275,0.0275,0.0276,0.0263,0,0,0,0,0,0,-0.0081,-0.0074,-0.0073,-0.0027,-0.0015,0.0021,0.0041,0.0052,0.0077,0.0081,0.0125,0.0132,0.0157,0.0196,0.0202,0.0209,0.0201,0.0274,0.0275,0.0276,0.0263,0.0264,0.0264,0,0,0,0,0,-0.0084,-0.0092,-0.0074,-0.0066,-0.0017,0.0021,0.003,0.0068,0.0077,0.0086,0.0122,0.013,0.0207,0.0199,0.0206,0.0214,0.0273,0.0275,0.0276,0.0263,0.0263,0.0264,0,0,0,0,0,0,-0.0129,-0.0086,-0.0065,-0.0061,-0.002,0.003,0.0041,0.0065,0.0101,0.0103,0.0141,0.0151,0.0185,0.0201,0.0191,0.0241,0.024,0.0243,0.0228,0.0229,0.0229,0.0226,0.0203,0,0,0,0,0,-0.0137,-0.0128,-0.0079,-0.0074,-0.0056,-0.0008,0.0012,0.0038,0.0076,0.0092,0.0126,0.0161,0.0195,0.0213,0.0244,0.027,0.0296,0.0279,0.028,0.028,0.0284,0.0328,0.0332,0.0281,0.0281,0.0281,0,0,-0.0154,-0.0127,-0.0123,-0.0081,-0.0048,-0.0022,0.0004,0.0031,0.0057,0.0093,0.0132,0.0163,0.0203,0.0239,0.0254,0.0253,0.0311,0.0282,0.0282,0.0285,0.033,0.0335,0.0339,0.0282,0.0282,0.0282,0,0,-0.0181,-0.0158,-0.0156,-0.012,-0.0071,-0.0038,-0.0032,0.0021,0.0047,0.0089,0.0123,0.0162,0.0208,0.0247,0.0269,0.029,0.0312,0.0293,0.0294,0.0337,0.0341,0.0345,0.0392,0.04,0.0293,0.0293,0.0293,0,-0.0202,-0.0188,-0.0149,-0.0128,-0.01,-0.0048,-0.0032,0.0006,0.0065,0.0089,0.0098,0.0187,0.0216,0.0271,0.028,0.0292,0.0318,0.0286,0.0337,0.0342,0.0346,0.0393,0.0402,0.0292,0.0292,0.0292,0.0292,0,-0.0218,-0.0199,-0.0194,-0.0147,-0.0114,-0.0093,-0.0033,-0.0001,0.0034,0.0077,0.0136,0.0188,0.024,0.0255,0.0275,0.0323,0.0333,0.0332,0.0333,0.0351,0.0399,0.0409,0.0291,0.0292,0.0292,0.0292,0,0,-0.0281,-0.022,-0.0215,-0.0197,-0.0122,-0.0104,-0.0054,0.0003,0.0032,0.0094,0.0138,0.0206,0.0235,0.0263,0.0297,0.0336,0.0393,0.0343,0.0346,0.0385,0.0491,0.0566,0.0585,0.0397,0.0398,0.0399,0.0514,0,-0.0302,-0.0289,-0.0236,-0.0211,-0.02,-0.0123,-0.0083,-0.0023,0.0037,0.0092,0.0161,0.0211,0.0239,0.026,0.0309,0.0373,0.0418,0.0363,0.0472,0.0476,0.0537,0.0599,0.0699,0.0816,0.0524,0.0526,0.0527,0,-0.0327,-0.0316,-0.0305,-0.025,-0.0237,-0.0208,-0.0137,-0.0093,0.0007,0.0054,0.013,0.019,0.0274,0.028,0.0413,0.0375,0.0431,0.048,0.0485,0.0567,0.057,0.075,0.0845,0.1077,0.0543,0.0541,0.054,0,-0.0404,-0.0359,-0.0359,-0.0336,-0.0267,-0.0246,-0.0209,-0.0114,-0.0084,0.0027,0.0063,0.0183,0.0235,0.0331,0.045,0.0428,0.0592,0.0574,0.0699,0.0705,0.082,0.0834,0.1151,0.0661,0.0661,0.0661,0.066,0,-0.0444,-0.0441,-0.04,-0.0398,-0.0405,-0.0322,-0.0303,-0.0239,-0.0151,-0.0115,0.0024,0.0085,0.0246,0.0366,0.046,0.0633,0.0607,0.0724,0.075,0.082,0.0832,0.106,0.1131,0.0665,0.0664,0.0663,0.0662,0,-0.0518,-0.0483,-0.0494,-0.0451,-0.0442,-0.0453,-0.0396,-0.0386,-0.0272,-0.0218,-0.0187,0.001,0.0196,0.037,0.0549,0.0652,0.0934,0.0854,0.0935,0.0969,0.1302,0.1365,0.1644,0.1697,0.1024,0.1027,0.1029,0,-0.0551,-0.0567,-0.0566,-0.0597,-0.0581,-0.0579,-0.0585,-0.0479,-0.0454,-0.0264,-0.0252,-0.0028,0.0149,0.0483,0.0733,0.0972,0.1062,0.1162,0.1145,0.1373,0.1462,0.1479,0.1501,0.1293,0.1298,0.1301,0.1304,0,-0.0631,-0.0634,-0.0653,-0.0733,-0.0759,-0.0778,-0.0762,-0.075,-0.0609,-0.0515,-0.034,-0.0162,0.0262,0.0669,0.1018,0.1119,0.1348,0.124,0.1467,0.171,0.1759,0.1804,0.1159,0.1335,0.1332,0.133,0.1328,0.1327,-0.0702,-0.0755,-0.0805,-0.0881,-0.093,-0.0976,-0.0991,-0.0926,-0.0866,-0.0673,-0.0437,-0.0095,0.0619,0.1174,0.1322,0.1756,0.1608,0.1859,0.1919,0.1916,0.1986,0.1415,0.1619,0.1617,0.1616,0.1615,0.1614,0,-0.0801,-0.0866,-0.0954,-0.1048,-0.1149,-0.112,-0.1119,-0.1103,-0.1031,-0.0715,-0.0468,0.0387,0.1049,0.1614,0.2308,0.2482,0.2423,0.2527,0.2604,0.2586,0.2109,0.2144,0.2483,0.2483,0.2483,0.2482,0.2482,0.2482,-0.0861,-0.0976,-0.1033,-0.1238,-0.1302,-0.1391,-0.1392,-0.1311,-0.1094,-0.0596,-0.0068,0.0382,0.1343,0.2645,0.3231,0.3176,0.3274,0.3237,0.3244,0.2984,0.2926,0.2871,0.2927,0.3425,0.3426,0.3702,0.3706,0.3709]}],[{"header":{"parameterUnit":"m.s-1","parameterCategory":2,"la1":30.2991,"la2":30.254,"lo1":-89.0895,"lo2":-89.0444,"dy":0.0017,"dx":0.0017,"nx":28,"ny":28,"refTime":"2024-06-17T21:00:00:Z","depth":"2","parameterNumber":2,"parameterNumberName":"U-component_of_CURRENTS"},"data":[0,0,0,0,0,0,0,0,0,0,0,0,0,0,0,0,0,0,0,0,0,0,0,0,0,0,0,0,0,0,0,0,0,0,0,0,0,0,0,0,0,0,0,0,0,0,0,0,0,0,0,0,0,0,0,0,0,0,-0.1176,-0.1176,0,-0.1177,-0.1177,-0.1177,-0.1156,-0.1155,-0.1155,-0.1155,-0.1092,-0.1091,-0.1089,0,0,0,0,0,0,0,0,0,0,0,0,0,-0.109,-0.1092,-0.1176,-0.1176,-0.1176,-0.1177,-0.1177,-0.1177,-0.1156,-0.1155,-0.1155,-0.1155,-0.1093,-0.1091,-0.1089,0,0,0,0,0,0,0,0,0,0,0,0,0,-0.111,-0.1092,-0.1175,-0.1168,-0.1168,-0.1177,-0.1177,-0.1177,-0.1156,-0.1155,-0.1155,-0.1155,-0.1093,-0.1091,-0.1089,-0.1084,0,0,-0.1083,-0.1082,0,0,0,0,0,0,0,0,-0.1109,-0.1113,-0.1169,-0.1169,-0.1169,-0.1169,-0.1124,-0.1144,-0.1156,-0.1157,-0.1155,-0.1155,-0.1114,-0.1111,-0.1108,-0.1081,-0.1078,-0.1082,-0.1081,-0.108,-0.108,0,0,0,0,0,0,0,-0.1107,-0.1112,-0.1173,-0.117,-0.1169,-0.1143,-0.1146,-0.1127,-0.1134,-0.1157,-0.1156,-0.1162,-0.1113,-0.111,-0.1106,-0.1077,-0.1082,-0.108,-0.1079,-0.1078,-0.103,-0.103,0,0,0,0,0,0,-0.1119,-0.1111,-0.1173,-0.1173,-0.1141,-0.1146,-0.1149,-0.1166,-0.1135,-0.1132,-0.1162,-0.1161,-0.1114,-0.1109,-0.1104,-0.1096,-0.108,-0.1078,-0.1077,-0.103,-0.103,-0.103,0,0,0,0,0,0,-0.1117,-0.1124,-0.1173,-0.1144,-0.1149,-0.1149,-0.1168,-0.1167,-0.117,-0.1141,-0.1135,-0.1168,-0.1113,-0.1107,-0.1093,-0.1094,-0.1077,-0.1075,-0.103,-0.103,-0.103,-0.1081,0,0,0,0,0,0,-0.1115,-0.1124,-0.114,-0.1145,-0.1151,-0.1188,-0.1169,-0.1167,-0.1175,-0.1174,-0.1144,-0.1138,-0.1112,-0.1097,-0.1091,-0.109,-0.1074,-0.103,-0.103,-0.103,-0.1079,-0.1083,-0.1086,0,0,0,0,0,-0.1112,-0.1144,-0.1141,-0.1148,-0.1174,-0.1189,-0.119,-0.1184,-0.1176,-0.1184,-0.1161,-0.1139,-0.1092,-0.1096,-0.1089,-0.1087,-0.103,-0.103,-0.103,-0.1078,-0.1082,-0.1086,0,0,0,0,0,0,-0.1121,-0.1145,-0.1142,-0.1182,-0.1187,-0.1187,-0.1201,-0.1192,-0.1182,-0.118,-0.1145,-0.1137,-0.112,-0.11,-0.1104,-0.1072,-0.1055,-0.1054,-0.1094,-0.1097,-0.11,-0.1135,-0.1072,0,0,0,0,0,-0.113,-0.1158,-0.1169,-0.12,-0.1207,-0.1203,-0.1209,-0.1205,-0.1198,-0.1194,-0.117,-0.1142,-0.1114,-0.1105,-0.1078,-0.107,-0.1101,-0.1062,-0.1065,-0.1068,-0.1091,-0.1131,-0.1142,-0.1031,-0.1031,-0.1031,0,0,-0.1143,-0.116,-0.1177,-0.1202,-0.1208,-0.122,-0.1205,-0.1224,-0.1225,-0.1188,-0.1182,-0.1153,-0.1113,-0.1098,-0.1088,-0.1083,-0.1121,-0.1068,-0.1071,-0.1093,-0.1133,-0.1144,-0.1154,-0.1031,-0.1031,-0.1031,0,0,-0.1181,-0.1199,-0.1231,-0.1235,-0.125,-0.1245,-0.1253,-0.1255,-0.1248,-0.124,-0.1207,-0.1187,-0.1148,-0.1124,-0.1105,-0.1112,-0.1133,-0.1095,-0.1145,-0.1184,-0.1195,-0.1204,-0.1289,-0.1306,-0.1101,-0.1102,-0.1102,0,-0.1195,-0.1236,-0.124,-0.1263,-0.1277,-0.1258,-0.1287,-0.1271,-0.1263,-0.1277,-0.1243,-0.1211,-0.116,-0.1159,-0.1147,-0.112,-0.1169,-0.1134,-0.1192,-0.1202,-0.1211,-0.1295,-0.1313,-0.1104,-0.1104,-0.1103,-0.1103,0,-0.1249,-0.1274,-0.1294,-0.1314,-0.1327,-0.135,-0.1337,-0.1345,-0.1329,-0.1321,-0.1321,-0.1262,-0.1258,-0.1217,-0.1175,-0.1208,-0.1234,-0.1191,-0.1191,-0.1226,-0.1312,-0.133,-0.1108,-0.1107,-0.1106,-0.1105,0,0,-0.1304,-0.1328,-0.1335,-0.1361,-0.136,-0.139,-0.1392,-0.1414,-0.1458,-0.1407,-0.1461,-0.1367,-0.1361,-0.1338,-0.1289,-0.1297,-0.1379,-0.1275,-0.1276,-0.1377,-0.1523,-0.1626,-0.1655,-0.1356,-0.1359,-0.1361,-0.157,0,-0.1346,-0.1398,-0.1399,-0.1453,-0.1483,-0.1477,-0.1502,-0.1516,-0.1513,-0.1554,-0.1492,-0.1507,-0.1398,-0.1412,-0.14,-0.138,-0.1424,-0.133,-0.146,-0.1465,-0.1565,-0.1677,-0.142,-0.1593,-0.1587,-0.159,-0.1592,0,-0.1398,-0.1431,-0.1478,-0.1554,-0.1574,-0.1593,-0.1672,-0.1692,-0.1719,-0.1724,-0.172,-0.1693,-0.168,-0.1586,-0.1606,-0.156,-0.156,-0.154,-0.1547,-0.1641,-0.1601,-0.1548,-0.1625,-0.1622,-0.162,-0.1618,-0.1616,0,-0.1438,-0.1501,-0.1544,-0.1556,-0.1617,-0.1655,-0.1697,-0.1742,-0.1797,-0.1835,-0.1887,-0.1871,-0.1882,-0.1856,-0.1797,-0.1725,-0.1852,-0.1748,-0.1858,-0.1866,-0.1673,-0.1662,-0.181,-0.1809,-0.1809,-0.1808,-0.1808,0,-0.1478,-0.1526,-0.1566,-0.1584,-0.1694,-0.1716,-0.1826,-0.1866,-0.1937,-0.2031,-0.1978,-0.205,-0.1949,-0.1991,-0.1915,-0.1977,-0.1959,-0.1924,-0.194,-0.1688,-0.1676,-0.1698,-0.1682,-0.1816,-0.1815,-0.1813,-0.1812,0,-0.1502,-0.1513,-0.1587,-0.1662,-0.1698,-0.1775,-0.1899,-0.1986,-0.2037,-0.2157,-0.2181,-0.2217,-0.2277,-0.2221,-0.2219,-0.2167,-0.2184,-0.2211,-0.1959,-0.1944,-0.2146,-0.213,-0.2375,-0.2381,-0.2386,-0.239,-0.2393,0,-0.1519,-0.1539,-0.1636,-0.1691,-0.1719,-0.1829,-0.1916,-0.2011,-0.2098,-0.2263,-0.233,-0.2439,-0.2508,-0.2578,-0.2443,-0.2423,-0.2388,-0.2266,-0.2072,-0.2221,-0.2211,-0.2187,-0.2165,-0.1831,-0.183,-0.1829,-0.1828,0,-0.1549,-0.1563,-0.1615,-0.1727,-0.1815,-0.1941,-0.2059,-0.2146,-0.2277,-0.2378,-0.2562,-0.2646,-0.2686,-0.2552,-0.2531,-0.2444,-0.2239,-0.2254,-0.2467,-0.1756,-0.1733,-0.1715,-0.1705,-0.1817,-0.1818,-0.1819,-0.1819,-0.182,-0.1569,-0.1613,-0.1664,-0.1773,-0.1886,-0.2014,-0.2064,-0.2156,-0.2293,-0.2335,-0.2585,-0.2563,-0.2557,-0.2363,-0.2302,-0.2183,-0.2301,-0.2157,-0.2149,-0.2144,-0.2072,-0.2062,-0.2196,-0.2199,-0.2202,-0.2204,-0.2206,0,-0.1563,-0.1625,-0.1717,-0.1826,-0.1873,-0.1978,-0.2128,-0.2049,-0.209,-0.2187,-0.2261,-0.2089,-0.2083,-0.2058,-0.1861,-0.1908,-0.172,-0.1851,-0.1561,-0.1576,-0.1589,-0.1474,-0.1447,-0.1445,-0.1443,-0.1442,0,0,-0.1567,-0.1603,-0.1637,-0.1723,-0.1813,-0.1788,-0.1827,-0.1732,-0.1699,-0.1607,-0.1594,-0.1796,-0.196,-0.165,-0.1634,-0.1517,-0.1494,-0.1433,-0.2034,-0.17,-0.1708,-0.1766,-0.1612,0,0,0,0,0]},{"header":{"parameterUnit":"m.s-1","parameterCategory":2,"la1":30.2991,"la2":30.254,"lo1":-89.0895,"lo2":-89.0444,"dy":0.0017,"dx":0.0017,"nx":28,"ny":28,"refTime":"2024-06-17T21:00:00:Z","depth":"2","parameterNumber":3,"parameterNumberName":"V-component_of_CURRENTS"},"data":[0,0,0,0,0,0,0,0,0,0,0,0,0,0,0,0,0,0,0,0,0,0,0,0,0,0,0,0,0,0,0,0,0,0,0,0,0,0,0,0,0,0,0,0,0,0,0,0,0,0,0,0,0,0,0,0,0,0,-0.0048,-0.0047,0,0.0043,0.0044,0.0045,0.0095,0.0095,0.0095,0.0095,0.0166,0.0168,0.0169,0,0,0,0,0,0,0,0,0,0,0,0,0,-0.0122,-0.0121,-0.0048,-0.0047,-0.0046,0.0043,0.0044,0.0046,0.0095,0.0095,0.0095,0.0095,0.0165,0.0168,0.017,0,0,0,0,0,0,0,0,0,0,0,0,0,-0.0067,-0.0121,-0.0049,-0.001,-0.0006,0.0043,0.0044,0.0046,0.0095,0.0095,0.0095,0.0096,0.0165,0.0167,0.017,0.018,0,0,0.0178,0.0179,0,0,0,0,0,0,0,0,-0.007,-0.0065,-0.0017,-0.0013,-0.0007,0.0059,0.0045,0.009,0.0095,0.0056,0.0095,0.0096,0.0129,0.0134,0.015,0.0183,0.0186,0.0178,0.0179,0.0181,0.0181,0,0,0,0,0,0,0,-0.0074,-0.0068,-0.0013,-0.0016,-0.001,0.0023,0.003,0.0054,0.0088,0.0059,0.0063,0.0075,0.0131,0.0147,0.0152,0.0187,0.0178,0.018,0.0182,0.0183,0.0263,0.0263,0,0,0,0,0,0,-0.0087,-0.0072,-0.0016,-0.001,-0.0038,0.0024,0.0032,0.0036,0.0089,0.0097,0.0074,0.0077,0.0143,0.0149,0.0154,0.0192,0.0181,0.0183,0.0184,0.0262,0.0263,0.0264,0,0,0,0,0,0,-0.0089,-0.0083,-0.0019,-0.0038,-0.0027,0.0024,0.0029,0.0038,0.0058,0.0101,0.0109,0.0085,0.0143,0.0151,0.0187,0.0194,0.0184,0.0186,0.0262,0.0263,0.0263,0.0251,0,0,0,0,0,0,-0.0092,-0.0085,-0.0084,-0.0039,-0.0027,0.0009,0.0029,0.004,0.0065,0.0069,0.0112,0.0119,0.0144,0.0183,0.019,0.0197,0.0188,0.0261,0.0262,0.0263,0.0251,0.0252,0.0252,0,0,0,0,0,-0.0095,-0.0103,-0.0085,-0.0078,-0.0028,0.0009,0.0018,0.0056,0.0065,0.0074,0.011,0.0118,0.0195,0.0186,0.0194,0.0201,0.026,0.0262,0.0263,0.0251,0.0252,0.0252,0,0,0,0,0,0,-0.014,-0.0097,-0.0077,-0.0072,-0.0032,0.0018,0.0029,0.0053,0.0089,0.0091,0.0128,0.0138,0.0172,0.0189,0.0178,0.0229,0.0228,0.023,0.0216,0.0217,0.0217,0.0214,0.0191,0,0,0,0,0,-0.0148,-0.0139,-0.0091,-0.0085,-0.0068,-0.0019,0.0,0.0027,0.0064,0.008,0.0114,0.0149,0.0183,0.0201,0.0231,0.0258,0.0284,0.0267,0.0268,0.0268,0.0272,0.0315,0.032,0.0268,0.0268,0.0268,0,0,-0.0165,-0.0138,-0.0134,-0.0092,-0.006,-0.0033,-0.0007,0.002,0.0046,0.0081,0.0121,0.0152,0.0191,0.0227,0.0242,0.0241,0.0299,0.027,0.027,0.0273,0.0317,0.0322,0.0327,0.0269,0.0269,0.0269,0,0,-0.0192,-0.0169,-0.0167,-0.013,-0.0082,-0.0049,-0.0043,0.0009,0.0036,0.0078,0.0112,0.0151,0.0197,0.0235,0.0258,0.0279,0.0301,0.0281,0.0283,0.0326,0.033,0.0334,0.038,0.0389,0.0282,0.0282,0.0282,0,-0.0213,-0.0198,-0.016,-0.0139,-0.0111,-0.0059,-0.0043,-0.0005,0.0054,0.0078,0.0087,0.0175,0.0205,0.026,0.0269,0.0281,0.0307,0.0275,0.0326,0.0331,0.0336,0.0381,0.0391,0.0281,0.0281,0.0281,0.0281,0,-0.0228,-0.0209,-0.0204,-0.0157,-0.0124,-0.0103,-0.0043,-0.0011,0.0024,0.0066,0.0126,0.0178,0.023,0.0245,0.0265,0.0313,0.0322,0.0321,0.0321,0.034,0.0387,0.0397,0.0281,0.0281,0.0281,0.0281,0,0,-0.0291,-0.023,-0.0225,-0.0207,-0.0131,-0.0114,-0.0063,-0.0006,0.0023,0.0085,0.0129,0.0197,0.0225,0.0253,0.0287,0.0326,0.0383,0.0333,0.0336,0.0375,0.048,0.0554,0.0572,0.0387,0.0388,0.0389,0.0502,0,-0.0312,-0.0298,-0.0245,-0.0219,-0.0208,-0.0132,-0.0092,-0.0032,0.0028,0.0083,0.0152,0.0202,0.0229,0.0251,0.0299,0.0363,0.0408,0.0353,0.0461,0.0464,0.0524,0.0586,0.0451,0.0547,0.0512,0.0514,0.0515,0,-0.0336,-0.0325,-0.0314,-0.0259,-0.0245,-0.0217,-0.0145,-0.0101,-0.0002,0.0044,0.012,0.018,0.0264,0.0271,0.0403,0.0365,0.0421,0.0469,0.0475,0.0555,0.0557,0.0523,0.0567,0.0532,0.0531,0.053,0.0529,0,-0.0413,-0.0368,-0.0367,-0.0344,-0.0276,-0.0254,-0.0217,-0.0122,-0.0092,0.0018,0.0053,0.0173,0.0224,0.032,0.0439,0.0418,0.058,0.0562,0.0686,0.0691,0.0606,0.0603,0.0649,0.0649,0.0649,0.0649,0.0648,0,-0.0453,-0.0449,-0.0409,-0.0406,-0.0413,-0.033,-0.0311,-0.0248,-0.016,-0.0125,0.0014,0.0075,0.0235,0.0355,0.0449,0.062,0.0595,0.0711,0.0736,0.0601,0.0596,0.0599,0.0592,0.0653,0.0652,0.0651,0.065,0,-0.0526,-0.0492,-0.0502,-0.0458,-0.045,-0.0461,-0.0404,-0.0394,-0.0281,-0.0227,-0.0197,-0.0,0.0184,0.0358,0.0536,0.0638,0.0783,0.0839,0.0685,0.0692,0.086,0.085,0.0999,0.1003,0.1006,0.1009,0.1011,0,-0.0559,-0.0574,-0.0574,-0.0605,-0.0588,-0.0586,-0.0593,-0.0487,-0.0463,-0.0274,-0.0262,-0.004,0.0128,0.046,0.0646,0.0866,0.0872,0.0898,0.085,0.0892,0.0901,0.0886,0.0873,0.0722,0.0722,0.0721,0.0721,0,-0.0639,-0.0642,-0.066,-0.0739,-0.0766,-0.0785,-0.0769,-0.0758,-0.0618,-0.0528,-0.0355,-0.0186,0.0173,0.0421,0.0743,0.083,0.0863,0.0907,0.0983,0.0674,0.0646,0.065,0.0642,0.0719,0.0719,0.0719,0.0719,0.0719,-0.0709,-0.0762,-0.0812,-0.0887,-0.0937,-0.0983,-0.0998,-0.0945,-0.089,-0.0739,-0.0512,-0.027,0.0084,0.0485,0.0719,0.0894,0.0912,0.0928,0.0922,0.0917,0.0885,0.0866,0.0974,0.0975,0.0977,0.0978,0.0979,0,-0.0805,-0.0873,-0.096,-0.1054,-0.1148,-0.1126,-0.1125,-0.1112,-0.1058,-0.0887,-0.0698,-0.0355,0.0002,0.0355,0.0633,0.0879,0.0789,0.0901,0.0738,0.0738,0.0739,0.0692,0.0733,0.0734,0.0734,0.0735,0,0,-0.0865,-0.0977,-0.1033,-0.1231,-0.1298,-0.1378,-0.1378,-0.1325,-0.1215,-0.106,-0.0882,-0.0572,-0.0059,0.0111,0.0413,0.0574,0.0565,0.0549,0.0706,0.047,0.0467,0.0708,0.0632,0,0,0,0,0]}],[{"header":{"parameterUnit":"m.s-1","parameterCategory":2,"la1":30.2991,"la2":30.254,"lo1":-89.0895,"lo2":-89.0444,"dy":0.0017,"dx":0.0017,"nx":28,"ny":28,"refTime":"2024-06-17T21:00:00:Z","depth":"4","parameterNumber":2,"parameterNumberName":"U-component_of_CURRENTS"},"data":[0,0,0,0,0,0,0,0,0,0,0,0,0,0,0,0,0,0,0,0,0,0,0,0,0,0,0,0,0,0,0,0,0,0,0,0,0,0,0,0,0,0,0,0,0,0,0,0,0,0,0,0,0,0,0,0,0,0,-0.0379,-0.038,0,-0.0401,-0.0401,-0.0401,-0.0406,-0.0406,-0.0406,-0.0406,-0.04,-0.04,-0.04,0,0,0,0,0,0,0,0,0,0,0,0,0,-0.0311,-0.0313,-0.0379,-0.038,-0.038,-0.0401,-0.0401,-0.0401,-0.0406,-0.0406,-0.0406,-0.0406,-0.04,-0.04,-0.04,0,0,0,0,0,0,0,0,0,0,0,0,0,-0.0336,-0.0313,-0.0379,-0.0386,-0.0387,-0.0401,-0.0401,-0.0401,-0.0406,-0.0406,-0.0406,-0.0406,-0.04,-0.04,-0.04,-0.0399,0,0,-0.0399,-0.0399,0,0,0,0,0,0,0,0,-0.0335,-0.0339,-0.0385,-0.0386,-0.0387,-0.0402,-0.0375,-0.04,-0.0406,-0.0397,-0.0406,-0.0406,-0.0399,-0.0399,-0.0402,-0.0399,-0.0399,-0.0399,-0.0399,-0.0399,-0.0399,0,0,0,0,0,0,0,-0.0333,-0.0338,-0.0386,-0.0385,-0.0387,-0.0378,-0.0381,-0.038,-0.0396,-0.0398,-0.0399,-0.0403,-0.04,-0.0402,-0.0401,-0.0399,-0.0399,-0.0399,-0.0399,-0.0399,-0.0385,-0.0385,0,0,0,0,0,0,-0.0336,-0.0336,-0.0386,-0.0387,-0.0362,-0.0379,-0.0383,-0.0396,-0.0397,-0.0398,-0.0403,-0.0404,-0.0402,-0.0402,-0.0401,-0.0414,-0.0399,-0.0399,-0.0399,-0.0385,-0.0385,-0.0385,0,0,0,0,0,0,-0.0334,-0.034,-0.0385,-0.0363,-0.0368,-0.0381,-0.0395,-0.0396,-0.041,-0.0402,-0.0402,-0.0417,-0.0402,-0.0401,-0.0406,-0.0413,-0.0399,-0.0399,-0.0386,-0.0385,-0.0385,-0.0431,0,0,0,0,0,0,-0.0332,-0.034,-0.0353,-0.0363,-0.037,-0.0404,-0.0395,-0.0397,-0.0413,-0.0414,-0.0413,-0.0412,-0.0402,-0.0406,-0.0406,-0.0413,-0.0399,-0.0386,-0.0386,-0.0385,-0.043,-0.0433,-0.0435,0,0,0,0,0,-0.033,-0.0353,-0.0354,-0.036,-0.0387,-0.0405,-0.0408,-0.0415,-0.0414,-0.0425,-0.0419,-0.0412,-0.0402,-0.0406,-0.0406,-0.0413,-0.0386,-0.0386,-0.0385,-0.0429,-0.0432,-0.0435,0,0,0,0,0,0,-0.0334,-0.0356,-0.0357,-0.0387,-0.0399,-0.0407,-0.0423,-0.0423,-0.0428,-0.0431,-0.0418,-0.0416,-0.0419,-0.0408,-0.0412,-0.0404,-0.039,-0.0389,-0.0423,-0.0426,-0.0428,-0.0457,-0.0398,0,0,0,0,0,-0.034,-0.0363,-0.0377,-0.0401,-0.041,-0.0416,-0.0426,-0.0431,-0.0436,-0.0439,-0.0436,-0.0426,-0.0414,-0.0415,-0.0405,-0.0409,-0.0439,-0.0409,-0.0411,-0.0413,-0.0434,-0.0471,-0.048,-0.0383,-0.0383,-0.0383,0,0,-0.0347,-0.0364,-0.0376,-0.0403,-0.0413,-0.0434,-0.0423,-0.0446,-0.0459,-0.0437,-0.0456,-0.0438,-0.0416,-0.0416,-0.0416,-0.0411,-0.046,-0.0412,-0.0415,-0.0434,-0.0471,-0.0481,-0.049,-0.0383,-0.0383,-0.0383,0,0,-0.0376,-0.039,-0.0419,-0.0432,-0.0455,-0.0456,-0.0466,-0.048,-0.0484,-0.0496,-0.0474,-0.0466,-0.0458,-0.0443,-0.0432,-0.0441,-0.0469,-0.0431,-0.0473,-0.0508,-0.0518,-0.0526,-0.0602,-0.0617,-0.0435,-0.0435,-0.0435,0,-0.0383,-0.0426,-0.0428,-0.0458,-0.0479,-0.0469,-0.0504,-0.0501,-0.0512,-0.0526,-0.0508,-0.0501,-0.0471,-0.0475,-0.0467,-0.0449,-0.0493,-0.0467,-0.0516,-0.0524,-0.0532,-0.0608,-0.0624,-0.0437,-0.0437,-0.0436,-0.0436,0,-0.0429,-0.0467,-0.0486,-0.052,-0.0536,-0.0566,-0.0565,-0.0579,-0.0578,-0.0579,-0.0591,-0.0552,-0.0557,-0.0527,-0.0498,-0.053,-0.0554,-0.0515,-0.0518,-0.0546,-0.0623,-0.0639,-0.044,-0.0439,-0.0439,-0.0438,0,0,-0.0442,-0.0508,-0.0517,-0.0555,-0.0577,-0.0602,-0.0619,-0.0646,-0.0685,-0.0662,-0.0715,-0.0651,-0.0645,-0.0631,-0.0592,-0.0603,-0.0681,-0.0588,-0.0589,-0.0683,-0.0811,-0.0791,-0.0807,-0.0662,-0.0664,-0.0666,-0.0854,0,-0.0482,-0.0561,-0.0577,-0.0648,-0.0689,-0.0693,-0.0723,-0.074,-0.0747,-0.0791,-0.0745,-0.0771,-0.0679,-0.0697,-0.0688,-0.0685,-0.0721,-0.0637,-0.0754,-0.0759,-0.0752,-0.0822,-0.0673,-0.0865,-0.0869,-0.0872,-0.0874,0,-0.0521,-0.0575,-0.0654,-0.0742,-0.0762,-0.0793,-0.086,-0.0882,-0.0913,-0.0928,-0.0932,-0.0921,-0.0924,-0.0846,-0.0874,-0.0833,-0.0836,-0.0825,-0.0832,-0.081,-0.0767,-0.0822,-0.0902,-0.09,-0.0898,-0.0896,-0.0894,0,-0.0538,-0.0632,-0.0704,-0.0728,-0.081,-0.085,-0.0885,-0.0925,-0.0969,-0.1022,-0.1081,-0.1074,-0.1105,-0.1083,-0.1044,-0.0985,-0.1101,-0.1017,-0.1012,-0.1013,-0.0954,-0.0942,-0.1067,-0.1067,-0.1067,-0.1066,-0.1066,0,-0.0572,-0.0636,-0.0723,-0.0762,-0.0857,-0.0892,-0.0986,-0.1018,-0.109,-0.1166,-0.1153,-0.1218,-0.1168,-0.1212,-0.1145,-0.1149,-0.1191,-0.1058,-0.1063,-0.0971,-0.0959,-0.0968,-0.0954,-0.1073,-0.1072,-0.107,-0.1069,0,-0.0576,-0.0633,-0.0724,-0.0829,-0.0865,-0.0923,-0.1038,-0.1101,-0.1172,-0.1278,-0.1312,-0.137,-0.1421,-0.139,-0.1397,-0.1305,-0.1291,-0.1285,-0.126,-0.1254,-0.1161,-0.1147,-0.131,-0.1311,-0.1311,-0.1312,-0.1313,0,-0.0584,-0.0632,-0.0759,-0.0808,-0.0856,-0.0952,-0.1018,-0.1114,-0.1183,-0.1358,-0.141,-0.1526,-0.1544,-0.1558,-0.15,-0.1455,-0.1391,-0.141,-0.1206,-0.12,-0.1188,-0.1172,-0.1157,-0.1314,-0.1314,-0.1314,-0.1314,0,-0.0595,-0.0643,-0.0709,-0.0804,-0.0881,-0.0986,-0.1089,-0.1151,-0.1279,-0.1381,-0.1497,-0.1526,-0.1605,-0.1559,-0.1564,-0.1492,-0.14,-0.1416,-0.1411,-0.1219,-0.1206,-0.119,-0.1175,-0.1317,-0.1317,-0.1316,-0.1316,0,-0.0589,-0.0629,-0.0705,-0.0782,-0.0882,-0.0973,-0.1046,-0.1154,-0.1244,-0.1431,-0.148,-0.1561,-0.1637,-0.1587,-0.1573,-0.1531,-0.1451,-0.1357,-0.1353,-0.135,-0.1257,-0.124,-0.1404,0,0,0,0,0,-0.0576,-0.061,-0.0679,-0.075,-0.0845,-0.0897,-0.107,-0.1143,-0.1295,-0.1362,-0.1419,-0.1481,-0.1495,-0.1519,-0.1466,-0.1533,-0.1427,-0.1465,-0.1309,-0.1332,-0.1329,-0.1205,0,0,0,0,0,0,-0.0562,-0.0625,-0.0654,-0.0702,-0.0729,-0.0829,-0.0933,-0.1043,-0.1093,-0.1249,-0.1256,-0.1374,-0.1382,-0.1478,-0.1417,-0.1424,-0.1299,-0.1512,-0.1509,-0.1334,-0.1331,-0.1329,-0.12,0,0,0,0,0]},{"header":{"parameterUnit":"m.s-1","parameterCategory":2,"la1":30.2991,"la2":30.254,"lo1":-89.0895,"lo2":-89.0444,"dy":0.0017,"dx":0.0017,"nx":28,"ny":28,"refTime":"2024-06-17T21:00:00:Z","depth":"4","parameterNumber":3,"parameterNumberName":"V-component_of_CURRENTS"},"data":[0,0,0,0,0,0,0,0,0,0,0,0,0,0,0,0,0,0,0,0,0,0,0,0,0,0,0,0,0,0,0,0,0,0,0,0,0,0,0,0,0,0,0,0,0,0,0,0,0,0,0,0,0,0,0,0,0,0,-0.0174,-0.0173,0,-0.0101,-0.01,-0.0099,-0.0059,-0.0059,-0.0059,-0.0059,-0.0001,0.0001,0.0002,0,0,0,0,0,0,0,0,0,0,0,0,0,-0.0224,-0.0223,-0.0174,-0.0173,-0.0172,-0.0101,-0.01,-0.0099,-0.0059,-0.0059,-0.0059,-0.0059,-0.0001,0.0,0.0002,0,0,0,0,0,0,0,0,0,0,0,0,0,-0.0181,-0.0223,-0.0174,-0.0144,-0.014,-0.0101,-0.01,-0.0099,-0.0059,-0.0059,-0.0059,-0.0059,-0.0002,0.0,0.0002,0.0014,0,0,0.0009,0.001,0,0,0,0,0,0,0,0,-0.0184,-0.0179,-0.0149,-0.0146,-0.0142,-0.0089,-0.0096,-0.0062,-0.0059,-0.0089,-0.0059,-0.0059,-0.0032,-0.0027,-0.0013,0.0017,0.0019,0.0009,0.0011,0.0012,0.0012,0,0,0,0,0,0,0,-0.0187,-0.0182,-0.0144,-0.0148,-0.0144,-0.0115,-0.011,-0.0089,-0.0062,-0.0087,-0.0084,-0.0076,-0.003,-0.0015,-0.0012,0.002,0.0009,0.0011,0.0013,0.0013,0.0094,0.0095,0,0,0,0,0,0,-0.02,-0.0185,-0.0147,-0.0142,-0.0163,-0.0115,-0.0108,-0.0106,-0.0062,-0.0055,-0.0077,-0.0075,-0.0019,-0.0014,-0.0009,0.0038,0.0012,0.0014,0.0015,0.0094,0.0095,0.0096,0,0,0,0,0,0,-0.0201,-0.0197,-0.015,-0.0162,-0.0154,-0.0114,-0.0112,-0.0105,-0.0087,-0.0054,-0.0048,-0.0067,-0.0019,-0.0013,0.0022,0.0039,0.0015,0.0017,0.0093,0.0094,0.0095,0.0112,0,0,0,0,0,0,-0.0203,-0.0198,-0.0198,-0.0163,-0.0154,-0.0126,-0.0112,-0.0103,-0.0083,-0.008,-0.0044,-0.0038,-0.0018,0.0019,0.0025,0.0041,0.0018,0.0092,0.0093,0.0095,0.011,0.0113,0.0116,0,0,0,0,0,-0.0205,-0.0211,-0.0199,-0.0194,-0.0157,-0.0125,-0.0118,-0.0089,-0.0083,-0.0073,-0.0042,-0.0039,0.0033,0.0022,0.0028,0.0046,0.0091,0.0093,0.0095,0.0109,0.0113,0.0116,0,0,0,0,0,0,-0.0236,-0.0207,-0.0193,-0.019,-0.0158,-0.0119,-0.011,-0.009,-0.0058,-0.0056,-0.0026,-0.0018,0.0018,0.0029,0.0016,0.0074,0.0061,0.0064,0.007,0.0074,0.0077,0.0073,0.002,0,0,0,0,0,-0.0243,-0.0238,-0.0201,-0.0198,-0.0185,-0.0147,-0.0131,-0.011,-0.0078,-0.0064,-0.0034,-0.0004,0.0031,0.0048,0.0075,0.0106,0.0115,0.0121,0.0124,0.0126,0.0128,0.0157,0.0163,0.0102,0.0102,0.0102,0,0,-0.0254,-0.0236,-0.0234,-0.0203,-0.0178,-0.0149,-0.0137,-0.0115,-0.0083,-0.0064,-0.0017,0.0006,0.004,0.0081,0.0098,0.0093,0.015,0.0129,0.0131,0.0131,0.016,0.0166,0.0171,0.0103,0.0103,0.0102,0,0,-0.0272,-0.0258,-0.0256,-0.0225,-0.0189,-0.0159,-0.0154,-0.0111,-0.0085,-0.0041,-0.0014,0.0023,0.0066,0.0106,0.0128,0.0163,0.0163,0.0162,0.0179,0.0208,0.0213,0.0218,0.024,0.0247,0.0166,0.0166,0.0166,0,-0.0285,-0.0272,-0.025,-0.0228,-0.02,-0.0163,-0.0141,-0.0104,-0.0052,-0.0032,-0.0027,0.0053,0.0084,0.0145,0.0162,0.0171,0.0178,0.0163,0.0212,0.0216,0.0221,0.0243,0.025,0.0167,0.0167,0.0167,0.0167,0,-0.0292,-0.0271,-0.0266,-0.0222,-0.0191,-0.0167,-0.0113,-0.0083,-0.0053,-0.0017,0.0038,0.0087,0.013,0.0152,0.0171,0.0222,0.0214,0.0209,0.02,0.0228,0.0249,0.0256,0.0169,0.0169,0.0168,0.0168,0,0,-0.0342,-0.0283,-0.0278,-0.0258,-0.0184,-0.0169,-0.0109,-0.0055,-0.0035,0.0026,0.006,0.0141,0.0153,0.018,0.021,0.0247,0.0294,0.024,0.0241,0.0259,0.0349,0.0335,0.0342,0.0291,0.0292,0.0293,0.0352,0,-0.0348,-0.0323,-0.0278,-0.0239,-0.022,-0.0156,-0.0114,-0.0061,-0.0013,0.0026,0.0093,0.0132,0.0169,0.0181,0.023,0.0274,0.0312,0.0278,0.0323,0.0324,0.0306,0.0349,0.0297,0.0357,0.0359,0.036,0.0361,0,-0.0361,-0.0342,-0.0313,-0.026,-0.0248,-0.0217,-0.0159,-0.0115,-0.0039,-0.0008,0.0057,0.0101,0.0186,0.0193,0.0304,0.0275,0.0314,0.0349,0.0352,0.0338,0.0324,0.0324,0.0373,0.0372,0.0371,0.0371,0.037,0,-0.0417,-0.0364,-0.0348,-0.0323,-0.0258,-0.024,-0.0208,-0.0136,-0.0116,-0.0034,-0.0018,0.0089,0.013,0.0208,0.0306,0.0297,0.0409,0.0402,0.0431,0.043,0.0415,0.0409,0.0469,0.0469,0.0469,0.0469,0.0469,0,-0.0431,-0.042,-0.0382,-0.037,-0.0376,-0.0305,-0.0298,-0.025,-0.0191,-0.0173,-0.0054,-0.0014,0.0132,0.0221,0.0299,0.0396,0.0408,0.0445,0.045,0.0421,0.0416,0.042,0.0414,0.0471,0.0471,0.047,0.047,0,-0.0477,-0.0445,-0.0442,-0.0403,-0.04,-0.0409,-0.0379,-0.0381,-0.0301,-0.0271,-0.0248,-0.0093,0.0035,0.0177,0.0313,0.0379,0.0471,0.0495,0.046,0.0459,0.0473,0.0467,0.0535,0.0535,0.0535,0.0535,0.0535,0,-0.0492,-0.0494,-0.0495,-0.0521,-0.0505,-0.0511,-0.0527,-0.0457,-0.0446,-0.032,-0.0315,-0.0164,-0.0055,0.0134,0.0291,0.0457,0.0471,0.052,0.0504,0.0485,0.0483,0.0476,0.047,0.0535,0.0535,0.0535,0.0535,0,-0.0529,-0.0538,-0.0544,-0.0607,-0.0637,-0.0668,-0.0667,-0.0664,-0.0572,-0.05,-0.0379,-0.0229,-0.0076,0.0112,0.0253,0.0367,0.0495,0.0522,0.0522,0.0507,0.0486,0.0483,0.0477,0.0536,0.0536,0.0536,0.0536,0,-0.0572,-0.0604,-0.0635,-0.0687,-0.0749,-0.0801,-0.0783,-0.0744,-0.0712,-0.0546,-0.0508,-0.0296,-0.0148,0.0065,0.0191,0.0317,0.0339,0.0363,0.0371,0.0373,0.0315,0.0264,0.0259,0,0,0,0,0,-0.0605,-0.0653,-0.0714,-0.0776,-0.0844,-0.0875,-0.0871,-0.0833,-0.0731,-0.0674,-0.0584,-0.0435,-0.018,-0.0045,0.0069,0.0173,0.0345,0.0311,0.0371,0.0538,0.0537,0.0497,0,0,0,0,0,0,-0.0634,-0.0695,-0.0727,-0.0846,-0.0904,-0.0975,-0.0978,-0.0907,-0.0848,-0.0717,-0.0586,-0.0436,-0.0199,-0.027,0.0056,0.0107,0.0156,0.0457,0.0459,0.0538,0.0538,0.0537,0.0496,0,0,0,0,0]}]]